Simultaneous Nadir Overpasses (SNOs) Predictions

Prediction of SNOs between METOP-B and TERRA Satellite Orbit:

Table of predicted SNOs for the next 14.0 days since TLE Epoch: 5/19/2018
Index Date (METOP-B) Time (METOP-B) Lat,Lon (METOP-B) SZA (METOP-B ) Date (TERRA) Time (TERRA) Lat,Lon (TERRA) SZA (TERRA ) Distance(km) Time Diff (sec)
1 05/21/2018 19:09:18 -81.34, 120.44 115.89 05/21/2018 19:09:51 -81.34, 120.55 115.87 2.00 33
2 05/21/2018 19:59:57 81.35, -71.73 64.17 05/21/2018 19:59:17 81.35, -71.64 64.16 1.57 40
3 05/24/2018 14:43:38 -81.35,-172.90 116.41 05/24/2018 14:44:07 -81.35,-172.82 116.38 1.40 29
4 05/24/2018 15:34:17 81.35, -5.09 63.65 05/24/2018 15:33:33 81.36, -5.04 63.64 1.03 44
5 05/27/2018 10:17:58 -81.35,-106.26 116.87 05/27/2018 10:18:23 -81.35,-106.29 116.86 0.77 25
6 05/27/2018 11:08:37 81.35, 61.53 63.18 05/27/2018 11:07:49 81.36, 61.46 63.15 1.39 48
7 05/30/2018 05:52:18 -81.35, -40.03 117.35 05/30/2018 05:52:38 -81.35, -39.86 117.31 2.90 20
8 05/30/2018 06:42:57 81.35, 127.74 62.71 05/30/2018 06:42:04 81.36, 127.86 62.70 2.01 53
9 06/02/2018 01:26:38 -81.35, 26.58 117.72 06/02/2018 01:26:54 -81.35, 26.47 117.73 1.81 16




NCC Satellite Simultaneous Nadir Overpasses (SNOs) Prediction Service
